FW6620 Weather Reports


time (UTC)temp
C
wind
direction
speed
KPH
gust
KPH
rain 1hr
cm
rain 24hr
cm
rain mn
cm
humidity
%
barometer
mb
20260508222547 26 0 0.0 6.4 0.00 0.00 0.00 76 1009.3
20260508222046 26 26 1.6 6.4 0.00 0.00 0.00 76 1009.4
20260508221554 26 0 0.0 4.8 0.00 0.00 0.00 76 1009.3
20260508221046 26 0 1.6 6.4 0.00 0.00 0.00 76 1009.3
20260508220545 26 0 1.6 6.4 0.00 0.00 0.00 75 1009.4
20260508220053 26 0 0.0 4.8 0.00 0.00 0.00 77 1009.5
20260508215546 26 0 0.0 4.8 0.00 0.00 0.00 76 1009.4
20260508215047 26 0 0.0 4.8 0.00 0.00 0.00 75 1009.5
20260508214552 26 0 0.0 4.8 0.00 0.00 0.00 76 1009.4
20260508214048 26 0 0.0 6.4 0.00 0.00 0.00 75 1009.5
20260508213547 26 28 0.0 6.4 0.00 0.00 0.00 77 1009.5
20260508213053 26 28 0.0 6.4 0.00 0.00 0.00 76 1009.6
20260508212547 26 28 1.6 6.4 0.00 0.00 0.00 76 1009.6
20260508212047 26 0 0.0 6.4 0.00 0.00 0.00 77 1009.8
20260508211600 26 28 1.6 4.8 0.00 0.00 0.00 76 1009.8
20260508211051 26 0 0.0 4.8 0.00 0.00 0.00 77 1009.9
20260508210547 26 29 1.6 4.8 0.00 0.00 0.00 76 1010.1
20260508210055 26 0 0.0 4.8 0.00 0.00 0.00 76 1010.1
20260508205546 26 0 1.6 4.8 0.00 0.00 0.00 76 1010.1
20260508205046 26 29 0.0 6.4 0.00 0.00 0.00 75 1010.1
20260508204558 26 29 1.6 6.4 0.00 0.00 0.00 75 1010.2
20260508204047 26 29 0.0 4.8 0.00 0.00 0.00 76 1010.2
20260508203550 26 29 0.0 4.8 0.00 0.00 0.00 76 1010.3
20260508203058 26 29 0.0 6.4 0.00 0.00 0.00 76 1010.3
20260508202546 26 0 1.6 4.8 0.00 0.00 0.00 75 1010.3
20260508202050 26 0 0.0 4.8 0.00 0.00 0.00 74 1010.4
20260508201601 26 0 0.0 4.8 0.00 0.00 0.00 75 1010.5
20260508201047 26 30 1.6 6.4 0.00 0.00 0.00 75 1010.4
20260508200547 26 0 1.6 6.4 0.00 0.00 0.00 76 1010.5
20260508200111 26 27 0.0 6.4 0.00 0.00 0.00 76 1010.5
20260508195546 26 0 0.0 6.4 0.00 0.00 0.00 76 1010.8
20260508195047 26 0 0.0 3.2 0.00 0.00 0.00 76 1010.8
20260508194558 26 0 0.0 4.8 0.00 0.00 0.00 77 1010.8
20260508194048 25 0 0.0 6.4 0.00 0.00 0.00 77 1010.9
20260508193546 25 0 1.6 6.4 0.00 0.00 0.00 75 1010.9
20260508193150 25 27 0.0 4.8 0.00 0.00 0.00 76 1011.1
20260508192546 25 28 1.6 4.8 0.00 0.00 0.00 76 1011.2
20260508192046 25 28 0.0 6.4 0.00 0.00 0.00 76 1011.2
20260508191559 25 28 0.0 6.4 0.00 0.00 0.00 75 1011.3
20260508191045 25 27 3.2 6.4 0.00 0.00 0.00 75 1011.3
20260508190546 25 0 0.0 6.4 0.00 0.00 0.00 76 1011.3
20260508190056 25 0 1.6 6.4 0.00 0.00 0.00 74 1011.5
20260508185550 25 33 1.6 3.2 0.00 0.00 0.00 74 1011.4
20260508185046 25 0 0.0 4.8 0.00 0.00 0.00 74 1011.5
20260508184608 25 0 0.0 4.8 0.00 0.00 0.00 76 1011.5
20260508184048 25 34 0.0 4.8 0.00 0.00 0.00 75 1011.5
20260508183548 25 34 0.0 3.2 0.00 0.00 0.00 74 1011.7
20260508183113 25 0 0.0 4.8 0.00 0.00 0.00 74 1011.8
20260508182547 25 34 0.0 4.8 0.00 0.00 0.00 74 1011.9
20260508182046 25 34 0.0 4.8 0.00 0.00 0.00 74 1011.9
20260508181603 25 34 0.0 4.8 0.00 0.00 0.00 74 1012.0
20260508181046 25 34 0.0 3.2 0.00 0.00 0.00 76 1012.0
20260508180546 25 34 0.0 3.2 0.00 0.00 0.00 76 1012.1
20260508180050 25 34 0.0 4.8 0.00 0.00 0.00 75 1012.3
20260508175545 25 0 0.0 4.8 0.00 0.00 0.00 76 1012.3
20260508175048 25 0 0.0 3.2 0.00 0.00 0.00 75 1012.3
20260508174557 25 0 0.0 3.2 0.00 0.00 0.00 74 1012.3
20260508174045 25 0 0.0 3.2 0.00 0.00 0.00 74 1012.3
20260508173546 25 34 0.0 3.2 0.00 0.00 0.00 75 1012.4
20260508173053 24 34 0.0 3.2 0.00 0.00 0.00 76 1012.5
20260508172545 24 0 0.0 3.2 0.00 0.00 0.00 75 1012.6
20260508172047 24 0 0.0 4.8 0.00 0.00 0.00 75 1012.5
20260508171547 23 34 0.0 4.8 0.00 0.00 0.00 78 1012.6
20260508171047 23 34 0.0 1.6 0.00 0.00 0.00 77 1012.5
20260508170548 23 0 0.0 3.2 0.00 0.00 0.00 78 1012.5
20260508170057 23 34 0.0 4.8 0.00 0.00 0.00 77 1012.8
20260508165546 23 34 0.0 3.2 0.00 0.00 0.00 77 1012.9
20260508165048 22 0 0.0 3.2 0.00 0.00 0.00 79 1012.8
20260508164553 22 0 0.0 4.8 0.00 0.00 0.00 79 1012.8
20260508164046 22 0 1.6 4.8 0.00 0.00 0.00 80 1013.0
20260508163545 21 34 0.0 3.2 0.00 0.00 0.00 82 1012.9
20260508163054 21 34 0.0 4.8 0.00 0.00 0.00 80 1013.2
20260508162545 21 0 0.0 3.2 0.00 0.00 0.00 80 1013.2
20260508162047 21 0 1.6 3.2 0.00 0.00 0.00 79 1013.4
20260508161550 21 0 0.0 3.2 0.00 0.00 0.00 81 1013.5
20260508161045 20 0 0.0 3.2 0.00 0.00 0.00 80 1013.5
20260508160545 20 34 0.0 3.2 0.00 0.00 0.00 81 1013.6
20260508160051 20 0 0.0 3.2 0.00 0.00 0.00 80 1013.7
20260508155548 20 0 0.0 3.2 0.00 0.00 0.00 80 1013.8
20260508155048 20 0 0.0 3.2 0.00 0.00 0.00 79 1013.9
20260508154609 20 0 0.0 1.6 0.00 0.00 0.00 80 1013.9
20260508154045 20 0 0.0 1.6 0.00 0.00 0.00 81 1013.9
20260508153546 20 0 0.0 1.6 0.00 0.00 0.00 80 1013.8
20260508153057 20 0 0.0 1.6 0.00 0.00 0.00 80 1013.9
20260508152548 20 0 0.0 1.6 0.00 0.00 0.00 80 1014.1
20260508152047 20 0 0.0 1.6 0.00 0.00 0.00 80 1013.9
20260508151552 19 0 0.0 1.6 0.00 0.00 0.00 81 1014.0
20260508151048 19 34 0.0 0.0 0.00 0.00 0.00 81 1014.1
20260508150550 19 0 0.0 1.6 0.00 0.00 0.00 81 1014.0
20260508150049 19 0 0.0 4.8 0.00 0.00 0.00 81 1014.2
20260508145548 19 0 1.6 8.0 0.00 0.00 0.00 81 1014.2
20260508145049 19 34 0.0 8.0 0.00 0.00 0.00 80 1014.2
20260508144600 18 46 1.6 4.8 0.00 0.00 0.00 81 1014.1
20260508144048 18 0 0.0 3.2 0.00 0.00 0.00 81 1014.1
20260508143548 18 47 0.0 3.2 0.00 0.00 0.00 81 1014.0
20260508143105 18 0 0.0 3.2 0.00 0.00 0.00 82 1014.0
20260508142547 18 0 0.0 3.2 0.00 0.00 0.00 82 1014.0
20260508142048 18 47 0.0 3.2 0.00 0.00 0.00 82 1014.1
20260508141559 18 0 0.0 3.2 0.00 0.00 0.00 82 1014.1
20260508141049 18 0 0.0 3.2 0.00 0.00 0.00 83 1014.0
20260508140547 18 0 0.0 1.6 0.00 0.00 0.00 82 1014.1
20260508140054 17 0 0.0 1.6 0.00 0.00 0.00 83 1014.2
20260508135547 17 0 0.0 1.6 0.00 0.00 0.00 83 1014.2
20260508135050 17 0 0.0 0.0 0.00 0.00 0.00 83 1014.2
20260508134612 17 0 0.0 0.0 0.00 0.00 0.00 83 1014.3
20260508134048 17 0 0.0 0.0 0.00 0.00 0.00 83 1014.5
20260508133548 17 0 0.0 0.0 0.00 0.00 0.00 83 1014.5
20260508133100 17 0 0.0 0.0 0.00 0.00 0.00 83 1014.6
20260508132548 17 0 0.0 0.0 0.00 0.00 0.00 84 1014.6
20260508132048 17 0 0.0 0.0 0.00 0.00 0.00 84 1014.6
20260508131556 17 0 0.0 0.0 0.00 0.00 0.00 84 1014.3
20260508131049 17 0 0.0 0.0 0.00 0.00 0.00 83 1014.3
20260508130548 17 0 0.0 1.6 0.00 0.00 0.00 83 1014.3
20260508130055 17 0 0.0 1.6 0.00 0.00 0.00 83 1014.3
20260508125549 17 0 0.0 0.0 0.00 0.00 0.00 83 1014.5
20260508125048 17 0 0.0 0.0 0.00 0.00 0.00 83 1014.4
20260508124602 17 0 0.0 0.0 0.00 0.00 0.00 83 1014.5
20260508124048 17 0 0.0 0.0 0.00 0.00 0.00 84 1014.4
20260508123548 17 0 0.0 0.0 0.00 0.00 0.00 83 1014.4
20260508123053 17 0 0.0 0.0 0.00 0.00 0.00 82 1014.4
20260508122548 17 0 0.0 0.0 0.00 0.00 0.00 83 1014.3
20260508122047 17 0 0.0 0.0 0.00 0.00 0.00 83 1014.4
20260508121548 17 0 0.0 0.0 0.00 0.00 0.00 83 1014.4
20260508121047 17 0 0.0 0.0 0.00 0.00 0.00 83 1014.7
20260508120548 17 0 0.0 0.0 0.00 0.00 0.00 83 1014.7
20260508120052 17 0 0.0 0.0 0.00 0.00 0.00 83 1014.9
20260508115548 17 0 0.0 0.0 0.00 0.00 0.00 84 1015.0
20260508115051 17 0 0.0 0.0 0.00 0.00 0.00 84 1015.0
20260508114552 17 0 0.0 0.0 0.00 0.00 0.00 83 1015.1
20260508114048 17 0 0.0 0.0 0.00 0.00 0.00 84 1015.1
20260508113548 17 0 0.0 0.0 0.00 0.00 0.00 83 1015.1
20260508113107 17 0 0.0 0.0 0.00 0.00 0.00 84 1015.1
20260508112549 17 0 0.0 0.0 0.00 0.00 0.00 83 1015.2
20260508112048 17 0 0.0 0.0 0.00 0.00 0.00 83 1015.1
20260508111553 17 0 0.0 0.0 0.00 0.00 0.00 83 1014.9
20260508111047 17 0 0.0 0.0 0.00 0.00 0.00 83 1014.9
20260508110548 17 0 0.0 0.0 0.00 0.00 0.00 82 1015.1
20260508110052 17 0 0.0 0.0 0.00 0.00 0.00 82 1015.0
20260508105551 17 0 0.0 0.0 0.00 0.00 0.00 82 1014.6
20260508105047 17 0 0.0 0.0 0.00 0.00 0.00 82 1014.6
20260508104552 17 0 0.0 0.0 0.00 0.00 0.00 82 1014.7
20260508104051 17 0 0.0 0.0 0.00 0.00 0.00 83 1014.7
20260508103548 17 0 0.0 0.0 0.00 0.00 0.00 82 1014.8
20260508103055 17 0 0.0 1.6 0.00 0.00 0.00 83 1014.9
20260508102547 17 0 0.0 1.6 0.00 0.00 0.00 83 1014.7
20260508102048 17 47 0.0 1.6 0.00 0.00 0.00 82 1014.7
20260508101552 17 0 0.0 1.6 0.00 0.00 0.00 82 1014.7
20260508101048 17 0 0.0 1.6 0.00 0.00 0.00 83 1014.7
20260508100547 17 0 0.0 1.6 0.00 0.00 0.00 83 1014.9
20260508100109 17 0 0.0 1.6 0.00 0.00 0.00 83 1014.9
20260508095547 17 0 0.0 0.0 0.00 0.00 0.00 83 1014.8
20260508095048 17 0 0.0 0.0 0.00 0.00 0.00 83 1014.8
20260508094604 17 0 0.0 0.0 0.00 0.00 0.00 83 1014.9
20260508094048 17 0 0.0 0.0 0.00 0.00 0.00 83 1015.1
20260508093548 17 0 0.0 0.0 0.00 0.00 0.00 83 1015.2
20260508093056 17 0 0.0 0.0 0.00 0.00 0.00 83 1015.2
20260508092553 17 0 0.0 0.0 0.00 0.00 0.00 83 1015.1
20260508092047 17 0 0.0 0.0 0.00 0.00 0.00 84 1015.2
20260508091603 17 0 0.0 0.0 0.00 0.00 0.00 83 1015.1
20260508091048 17 0 0.0 0.0 0.00 0.00 0.00 83 1014.9
20260508090548 17 0 0.0 0.0 0.00 0.00 0.00 83 1014.6
20260508090113 17 0 0.0 0.0 0.00 0.00 0.00 81 1014.5
20260508085547 17 0 0.0 0.0 0.00 0.00 0.00 82 1014.6
20260508085050 17 0 0.0 0.0 0.00 0.00 0.00 81 1014.6
20260508084548 17 0 0.0 0.0 0.00 0.00 0.00 82 1014.8
20260508084049 17 0 0.0 0.0 0.00 0.00 0.00 81 1014.8
20260508083549 17 0 0.0 0.0 0.00 0.00 0.00 82 1014.7
20260508083049 17 0 0.0 0.0 0.00 0.00 0.00 82 1014.9
20260508082552 17 0 0.0 0.0 0.00 0.00 0.00 82 1015.0
20260508082047 17 0 0.0 0.0 0.00 0.00 0.00 82 1015.0
20260508081603 17 0 0.0 0.0 0.00 0.00 0.00 81 1014.9
20260508081047 17 0 0.0 0.0 0.00 0.00 0.00 81 1014.9
20260508080552 17 0 0.0 0.0 0.00 0.00 0.00 81 1015.2
20260508080055 17 0 0.0 0.0 0.00 0.00 0.00 82 1015.0
20260508075550 17 0 0.0 0.0 0.00 0.00 0.00 81 1014.7
20260508075049 16 0 0.0 0.0 0.00 0.00 0.00 82 1014.8
20260508074552 16 0 0.0 0.0 0.00 0.00 0.00 82 1014.7
20260508074052 16 0 0.0 0.0 0.00 0.00 0.00 82 1014.9
20260508073549 16 0 0.0 0.0 0.00 0.00 0.00 82 1014.8
20260508073110 16 0 0.0 0.0 0.00 0.00 0.00 83 1014.8
20260508072547 16 0 0.0 4.8 0.00 0.00 0.00 83 1014.6
20260508072047 16 0 0.0 4.8 0.00 0.00 0.00 83 1014.6
20260508071551 16 0 0.0 4.8 0.00 0.00 0.00 83 1014.9
20260508071048 16 0 0.0 0.0 0.00 0.00 0.00 83 1014.9
20260508070548 16 0 0.0 0.0 0.00 0.00 0.00 84 1014.7
20260508070053 16 0 0.0 0.0 0.00 0.00 0.00 84 1014.9
20260508065547 16 0 0.0 0.0 0.00 0.00 0.00 84 1015.2
20260508065048 16 0 0.0 0.0 0.00 0.00 0.00 84 1015.3
20260508064559 16 0 0.0 0.0 0.00 0.00 0.00 84 1015.4
20260508064048 16 0 0.0 0.0 0.00 0.00 0.00 84 1015.4
20260508063548 16 0 0.0 0.0 0.00 0.00 0.00 84 1015.7
20260508063107 16 0 0.0 0.0 0.00 0.00 0.00 84 1015.9
20260508062549 16 0 0.0 0.0 0.00 0.00 0.00 84 1016.1
20260508062048 16 0 0.0 0.0 0.00 0.00 0.00 83 1016.0
20260508061605 16 0 0.0 0.0 0.00 0.00 0.00 83 1015.9
20260508061048 16 0 0.0 0.0 0.00 0.00 0.00 83 1015.9
20260508060547 16 0 0.0 0.0 0.00 0.00 0.00 83 1015.8
20260508060103 16 0 0.0 0.0 0.00 0.00 0.00 82 1015.6
20260508055547 16 0 0.0 0.0 0.00 0.00 0.00 82 1015.4
20260508055047 16 0 0.0 0.0 0.00 0.00 0.00 82 1015.7
20260508054553 16 0 0.0 0.0 0.00 0.00 0.00 82 1015.8
20260508054048 16 0 0.0 0.0 0.00 0.00 0.00 82 1016.0
20260508053548 16 0 0.0 0.0 0.00 0.00 0.00 83 1016.0
20260508053058 16 0 0.0 0.0 0.00 0.00 0.00 82 1015.9
20260508052550 16 0 0.0 0.0 0.00 0.00 0.00 82 1015.7
20260508052046 16 0 0.0 0.0 0.00 0.00 0.00 82 1015.9
20260508051609 16 0 0.0 0.0 0.00 0.00 0.00 82 1015.7
20260508051048 16 0 0.0 0.0 0.00 0.00 0.00 81 1015.4
20260508050550 16 0 0.0 1.6 0.00 0.00 0.00 81 1015.5
20260508050058 16 0 0.0 1.6 0.00 0.00 0.00 82 1015.6
20260508045547 16 0 0.0 1.6 0.00 0.00 0.00 82 1016.1
20260508045047 16 0 0.0 0.0 0.00 0.00 0.00 82 1016.2
20260508044554 16 0 0.0 0.0 0.00 0.00 0.00 83 1016.5
20260508044047 16 0 0.0 0.0 0.00 0.00 0.00 83 1016.0
20260508043549 16 0 0.0 0.0 0.00 0.00 0.00 82 1015.2
20260508043055 16 0 0.0 0.0 0.00 0.00 0.00 82 1015.1
20260508042548 16 0 0.0 0.0 0.00 0.00 0.00 82 1015.5
20260508042048 16 0 0.0 0.0 0.00 0.00 0.00 81 1015.6
20260508041551 16 0 0.0 0.0 0.00 0.00 0.00 81 1015.7
20260508041048 16 0 0.0 0.0 0.00 0.00 0.00 81 1015.8
20260508040547 17 0 0.0 0.0 0.00 0.00 0.00 80 1015.9
20260508040055 17 0 0.0 0.0 0.00 0.00 0.00 81 1016.2
20260508035548 17 0 0.0 0.0 0.00 0.00 0.00 81 1016.0
20260508035048 17 0 0.0 0.0 0.00 0.00 0.00 80 1016.2
20260508034554 17 0 0.0 0.0 0.00 0.00 0.00 80 1016.2
20260508034048 17 0 0.0 0.0 0.00 0.00 0.00 79 1016.3
20260508033547 17 0 0.0 0.0 0.00 0.00 0.00 79 1016.5
20260508033055 17 0 0.0 0.0 0.00 0.00 0.00 79 1017.0
20260508032547 17 0 0.0 0.0 0.00 0.00 0.00 79 1017.1
20260508032048 17 0 0.0 0.0 0.00 0.00 0.00 79 1016.8
20260508031556 17 0 0.0 0.0 0.00 0.00 0.00 79 1016.9
20260508031048 17 0 0.0 0.0 0.00 0.00 0.00 78 1016.8
20260508030548 17 0 0.0 0.0 0.00 0.00 0.00 78 1016.6
20260508030058 17 0 0.0 0.0 0.00 0.00 0.00 78 1016.3
20260508025552 17 0 0.0 0.0 0.00 0.00 0.00 77 1015.9
20260508025048 17 0 0.0 0.0 0.00 0.00 0.00 76 1015.8
20260508024615 17 0 0.0 0.0 0.00 0.00 0.00 76 1015.9
20260508024048 17 0 0.0 0.0 0.00 0.00 0.00 77 1016.0
20260508023548 17 0 0.0 1.6 0.00 0.00 0.00 76 1015.7
20260508023049 17 0 0.0 1.6 0.00 0.00 0.00 75 1015.1
20260508022547 17 0 0.0 1.6 0.00 0.00 0.00 75 1014.4
20260508022048 17 0 0.0 1.6 0.00 0.00 0.00 75 1014.4
20260508021557 17 0 0.0 1.6 0.00 0.00 0.00 74 1014.3
20260508021048 18 0 0.0 1.6 0.00 0.00 0.00 75 1014.5
20260508020548 18 0 0.0 1.6 0.00 0.00 0.00 73 1014.4
20260508020054 18 0 0.0 1.6 0.00 0.00 0.00 73 1014.3
20260508015550 18 0 0.0 3.2 0.00 0.00 0.00 73 1014.4
20260508015048 18 0 0.0 3.2 0.00 0.00 0.00 72 1014.2
20260508014553 18 47 0.0 1.6 0.00 0.00 0.00 72 1014.0
20260508014048 18 0 0.0 1.6 0.00 0.00 0.00 71 1014.2
20260508013550 18 0 0.0 4.8 0.00 0.00 0.00 71 1014.4
20260508013051 18 0 0.0 3.2 0.00 0.00 0.00 70 1014.4
20260508012548 18 0 0.0 3.2 0.00 0.00 0.00 71 1014.5
20260508012048 18 0 0.0 0.0 0.00 0.00 0.00 70 1014.7
20260508011556 18 0 0.0 1.6 0.00 0.00 0.00 71 1014.9
20260508011047 18 0 0.0 3.2 0.00 0.00 0.00 70 1015.1
20260508010547 18 0 0.0 3.2 0.00 0.00 0.00 70 1014.8
20260508010057 18 46 0.0 3.2 0.00 0.00 0.00 68 1014.5
20260508005551 18 0 0.0 3.2 0.00 0.00 0.00 68 1014.2
20260508005047 18 0 0.0 3.2 0.00 0.00 0.00 68 1014.9
20260508004600 19 0 0.0 3.2 0.00 0.00 0.00 67 1014.4
20260508004048 19 0 0.0 3.2 0.00 0.00 0.00 67 1015.1
20260508003547 19 44 0.0 3.2 0.00 0.00 0.00 67 1015.1
20260508003055 19 44 0.0 1.6 0.00 0.00 0.00 69 1015.1
20260508002548 19 45 0.0 3.2 0.00 0.00 0.00 68 1015.1
20260508002047 19 0 0.0 3.2 0.00 0.00 0.00 69 1015.6
20260508001551 19 0 0.0 3.2 0.00 0.00 0.00 67 1015.5
20260508001047 20 45 0.0 3.2 0.00 0.00 0.00 69 1015.4
20260508000547 20 0 0.0 0.0 0.00 0.00 0.00 69 1015.4
20260508000049 20 0 0.0 0.0 0.00 0.00 0.00 69 1015.7
20260507235547 20 0 0.0 3.2 0.00 0.00 0.00 68 1016.0
20260507235048 20 0 0.0 3.2 0.00 0.00 0.00 68 1015.8
20260507234547 20 0 0.0 3.2 0.00 0.00 0.00 66 1016.0
20260507234048 20 0 0.0 3.2 0.00 0.00 0.00 68 1016.1
20260507233548 20 0 0.0 3.2 0.00 0.00 0.00 67 1016.0
20260507233053 20 0 0.0 3.2 0.00 0.00 0.00 67 1016.0
20260507232548 20 0 0.0 3.2 0.00 0.00 0.00 68 1016.0
20260507232048 20 0 0.0 3.2 0.00 0.00 0.00 68 1015.8
20260507231548 20 0 0.0 3.2 0.00 0.00 0.00 70 1016.1
20260507231047 20 0 0.0 1.6 0.00 0.00 0.00 68 1015.8
20260507230550 20 0 0.0 3.2 0.00 0.00 0.00 67 1015.8
20260507230106 20 0 0.0 3.2 0.00 0.00 0.00 70 1016.0
20260507225547 20 45 0.0 1.6 0.00 0.00 0.00 70 1016.1
20260507225047 20 0 0.0 1.6 0.00 0.00 0.00 69 1016.2
20260507224553 20 0 0.0 1.6 0.00 0.00 0.00 68 1016.1
20260507224049 20 0 0.0 3.2 0.00 0.00 0.00 69 1016.2
20260507223547 20 0 0.0 3.2 0.00 0.00 0.00 69 1016.4
20260507223050 20 0 0.0 1.6 0.00 0.00 0.00 71 1016.3